Location: Boncourt
(49.6160°N, 3.9448°E)
Time: 05:55:51
(UTC+00:00)

Cosmos 1814 Rocket - Visible Passes

Search period start: 30 September 2023 00:00
Search period end: 10 October 2023 00:00
Orbit: 743 x 786 km, 74.1° (Epoch: 29 September)

Date Brightness Start Highest point End Pass type
(mag) Time Alt. Az. Time Alt. Az. Time Alt. Az.
30 Sep 6.0 20:46:32 10° N 20:48:42 18° NNE 20:48:42 18° NNE visible
30 Sep 6.6 22:27:54 10° NNW 22:28:52 16° NNW 22:28:52 16° NNW visible
01 Oct 6.1 20:09:00 10° N 20:11:11 15° NNE 20:11:11 15° NNE visible
01 Oct 6.3 21:49:48 10° NNW 21:51:22 20° NNW 21:51:22 20° NNW visible
02 Oct 6.2 19:32:16 10° NNE 19:33:19 11° NE 19:33:41 10° NE visible
02 Oct 6.0 21:11:49 10° NNW 21:13:52 22° N 21:13:52 22° N visible
03 Oct 5.8 20:33:58 10° N 20:36:23 22° NNE 20:36:23 22° NNE visible
03 Oct 6.7 22:15:43 10° NNW 22:16:34 15° NW 22:16:34 15° NW visible
04 Oct 5.8 19:56:14 10° N 19:58:55 19° NNE 19:58:55 19° NNE visible
04 Oct 6.3 21:37:30 10° NNW 21:39:06 20° NNW 21:39:06 20° NNW visible
05 Oct 6.0 19:18:48 10° N 19:21:28 14° NE 19:21:28 14° NE visible
05 Oct 5.8 20:59:25 10° NNW 21:01:39 25° N 21:01:39 25° N visible
06 Oct 5.5 20:21:28 10° NNW 20:24:13 27° N 20:24:13 27° N visible
06 Oct 6.7 22:03:39 10° NW 22:04:25 14° NW 22:04:25 14° NW visible
07 Oct 5.4 19:43:38 10° N 19:46:49 24° NNE 19:46:49 24° NNE visible
07 Oct 6.2 21:25:17 10° NNW 21:27:00 21° NW 21:27:00 21° NW visible
08 Oct 5.6 19:05:57 10° N 19:09:26 18° NE 19:09:26 18° NE visible
08 Oct 5.6 20:47:06 10° NNW 20:49:37 29° NNW 20:49:37 29° NNW visible
09 Oct 5.9 18:28:37 10° NNE 18:30:57 13° NE 18:32:04 12° NE visible
09 Oct 5.1 20:09:02 10° NNW 20:12:15 36° N 20:12:15 36° N visible
09 Oct 6.8 21:51:45 10° NW 21:52:27 13° NW 21:52:27 13° NW visible
